Total_Precipitation_Accumulation
1.72 1.90 1.42 1.41 2.06 2.37 3.83 3.32 3.79 1.90 0.93 1.02 1.09 0.76 0.83 0.72 0.45 0.23 0.16 0.21 0.35 0.34 0.50 0.03 0.02 0.05 0.08 0.12 0.35 0.71 1.30 0.55 0.08 0.10 0.13 0.10 0.09 0.05 0.05 0.11 0.14 0.27 0.30 0.29 0.30
2.09 1.69 1.25 1.12 1.66 2.29 4.27 3.14 3.23 2.85 1.27 1.35 1.36 0.88 0.70 0.62 0.39 0.31 0.08 0.22 0.35 0.52 0.36 0.09 0.06 0.12 0.16 0.14 0.50 0.94 1.21 0.59 0.13 0.19 0.17 0.16 0.14 0.08 0.12 0.32 0.38 0.51 0.63 0.37 0.30
1.66 1.29 1.05 1.24 2.04 3.27 4.53 3.05 2.94 2.58 1.64 0.86 1.01 1.14 0.70 0.52 0.38 0.16 0.04 0.07 0.39 0.69 0.48 0.28 0.20 0.32 0.26 0.18 0.33 0.80 0.78 0.26 0.19 0.27 0.29 0.22 0.15 0.18 0.21 0.46 0.32 0.40 0.58 0.70 0.65
1.68 1.61 1.32 1.51 2.85 5.02 3.87 1.99 2.31 2.03 1.60 0.80 0.74 1.27 1.02 0.49 0.36 0.09 0.03 0.07 0.35 0.87 0.64 0.49 0.36 0.40 0.22 0.11 0.09 0.40 0.38 0.30 0.38 0.59 0.50 0.23 0.33 0.33 0.38 0.40 0.35 0.53 0.91 0.94 0.84
1.93 1.97 1.62 1.41 2.92 3.58 1.93 1.36 1.82 2.09 1.53 0.81 0.72 1.17 0.92 0.48 0.14 0.13 0.12 0.21 0.55 0.97 0.56 0.56 0.49 0.38 0.21 0.05 0.08 0.12 0.22 0.28 0.60 0.76 0.52 0.31 0.34 0.62 0.51 0.50 0.52 0.83 1.00 0.90 0.87
1.54 1.31 1.40 1.60 1.69 1.34 1.02 1.23 1.69 2.11 1.23 0.77 0.79 0.89 0.62 0.25 0.03 0.03 0.15 0.36 0.53 1.00 0.69 0.65 0.64 0.37 0.27 0.11 0.12 0.04 0.11 0.26 0.90 0.93 0.59 0.55 0.33 0.80 0.74 0.63 0.95 1.09 1.31 1.52 1.14
1.64 1.25 1.13 1.02 0.95 0.81 0.94 1.42 1.57 1.22 0.68 0.57 0.74 0.62 0.46 0.15 0.04 0.08 0.13 0.29 0.42 0.98 0.77 0.66 1.12 0.82 0.50 0.29 0.12 0.11 0.23 0.43 0.93 1.08 1.06 0.79 0.53 0.50 0.56 0.84 1.62 1.58 1.81 2.03 2.11
1.13 0.91 0.82 0.85 1.18 1.40 1.44 1.44 1.04 0.91 0.60 0.54 0.73 0.79 0.30 0.02 0.04 0.02 0.11 0.31 0.44 0.79 1.09 1.01 1.75 1.06 0.74 0.36 0.42 0.49 0.51 0.52 0.50 0.95 1.32 1.47 0.78 0.18 0.27 0.45 1.40 2.10 2.73 3.14 3.19
0.87 0.73 0.83 1.01 1.22 1.44 1.81 1.19 0.95 0.78 0.63 0.78 0.77 0.64 0.20 0.06 0.07 0.02 0.11 0.37 0.42 0.73 1.21 1.63 2.48 1.56 1.05 0.72 0.77 0.68 0.36 0.23 0.49 0.59 1.15 1.29 0.91 0.48 0.50 0.47 0.63 1.12 1.66 2.50 3.09
1.00 1.14 1.25 1.24 1.66 1.87 1.41 1.16 0.91 0.87 0.82 1.01 1.09 0.73 0.20 0.07 0.12 0.08 0.12 0.44 0.58 0.96 1.95 2.64 3.78 1.98 1.10 0.84 0.54 0.32 0.24 0.18 0.43 0.61 0.88 0.98 0.96 0.57 0.77 1.01 0.91 0.89 1.06 1.43 2.24
0.90 1.23 1.82 2.79 2.55 1.59 1.43 1.80 1.41 1.26 0.98 0.71 0.46 0.25 0.23 0.19 0.32 0.31 0.22 0.57 1.05 1.65 2.25 2.14 3.44 1.55 0.66 0.29 0.17 0.27 0.15 0.14 0.24 0.39 0.55 0.65 0.83 0.67 0.71 0.86 1.21 1.25 0.80 0.99 1.50
0.90 0.96 1.42 2.53 1.91 1.57 1.62 1.39 0.70 0.63 0.74 0.30 0.21 0.12 0.11 0.29 0.56 0.59 0.32 1.01 1.39 1.83 2.34 2.24 1.72 0.65 0.56 0.41 0.21 0.47 0.28 0.26 0.42 0.42 0.34 0.41 0.66 0.66 0.48 0.46 0.77 1.39 1.64 1.65 1.74
0.91 0.95 1.23 1.70 1.46 1.55 1.42 0.90 0.37 0.72 1.23 0.68 0.46 0.33 0.26 0.44 0.60 0.64 0.50 1.12 1.48 1.87 2.19 1.80 1.26 0.79 0.89 0.54 0.33 0.29 0.18 0.29 0.62 0.61 0.35 0.19 0.32 0.46 0.38 0.22 0.42 1.17 1.96 2.71 3.16
0.85 1.00 1.31 1.33 1.51 1.50 1.56 0.99 0.86 1.36 2.03 1.07 0.81 0.77 0.67 0.88 1.00 0.67 0.63 1.44 1.84 1.76 1.77 1.80 1.16 1.09 1.15 0.60 0.24 0.16 0.15 0.56 0.50 0.59 0.51 0.26 0.28 0.27 0.31 0.24 0.14 0.28 0.85 2.15 2.80
0.88 1.16 1.74 1.58 1.69 1.44 1.60 1.27 1.51 1.92 1.91 0.74 0.91 1.02 0.87 1.04 0.85 1.05 0.69 1.48 1.50 1.72 2.06 1.73 1.27 1.56 1.20 0.61 0.23 0.19 0.19 0.45 0.62 0.79 0.82 0.32 0.60 0.30 0.23 0.31 0.21 0.09 0.24 0.46 1.03
1.14 1.25 1.85 1.48 1.49 1.01 1.12 1.80 2.20 2.24 1.63 1.56 1.28 1.40 0.99 0.67 0.75 0.77 0.91 1.31 1.37 2.26 1.83 1.29 1.55 1.48 0.84 0.69 0.35 0.30 0.42 0.66 0.96 1.15 1.29 0.68 0.74 0.55 0.39 0.51 0.38 0.17 0.15 0.35 0.60
1.38 1.35 1.80 1.23 1.38 0.98 1.23 2.14 2.27 1.23 0.98 1.37 1.70 1.33 0.60 0.53 0.54 0.92 1.26 0.95 1.52 2.06 2.35 1.95 1.66 1.17 0.84 1.13 1.01 1.31 1.56 1.84 1.62 1.53 0.93 0.57 0.75 0.71 0.65 0.39 0.51 0.40 0.34 0.61 0.98
1.27 1.73 1.55 1.09 0.98 1.56 1.42 1.62 1.41 0.74 0.98 0.73 0.89 0.68 0.75 0.55 0.79 0.74 0.96 0.42 0.67 1.02 1.36 1.70 1.97 1.43 1.10 1.31 1.86 1.40 1.19 1.34 0.86 0.60 0.37 0.25 0.53 0.84 0.64 0.45 0.46 0.44 0.90 1.27 1.64
1.84 1.81 1.86 1.37 1.20 1.68 1.77 1.36 1.22 1.05 1.00 0.88 0.63 0.54 0.70 0.33 0.51 0.54 0.45 0.19 0.34 0.54 0.77 0.77 1.05 0.69 0.65 0.67 1.08 1.05 0.98 0.70 0.87 0.34 0.44 0.44 0.45 0.52 0.53 0.59 0.84 1.10 1.58 1.39 1.30
2.40 2.08 2.10 1.24 1.23 1.77 1.94 1.18 1.14 1.17 0.65 0.30 0.39 0.19 0.13 0.15 0.27 0.21 0.15 0.06 0.20 0.16 0.24 0.38 0.86 0.80 0.74 0.83 0.90 0.63 0.39 0.61 1.23 0.65 0.42 0.30 0.37 0.83 0.86 1.22 1.41 1.69 1.41 1.25 1.36
2.17 2.45 2.01 1.43 1.67 2.12 1.57 0.94 0.85 0.64 0.39 0.21 0.06 0.06 0.03 0.03 0.19 0.05 0.05 0.05 0.11 0.07 0.14 0.45 0.71 0.86 1.04 1.02 0.79 0.66 0.65 0.52 0.59 0.34 0.28 0.17 0.64 0.90 1.28 1.29 1.10 0.97 0.91 0.68 0.38
1.88 2.26 1.58 2.03 2.35 1.53 0.81 0.90 0.92 0.53 0.21 0.18 0.07 0.02 0.01 0.01 0.12 0.05 0.03 0.03 0.03 0.04 0.18 0.40 0.65 0.83 0.62 0.21 0.17 0.28 0.29 0.24 0.94 0.57 0.48 0.42 0.57 0.26 0.30 0.40 0.34 0.19 0.09 0.05 0.04
1.91 1.88 2.47 1.42 1.24 0.76 0.69 0.85 0.59 0.19 0.19 0.21 0.06 0.02 0.02 0.03 0.06 0.02 0.02 0.00 0.01 0.02 0.25 0.41 0.89 0.98 0.81 0.54 0.51 0.75 0.53 0.49 1.02 1.97 1.24 0.96 0.53 0.07 0.11 0.15 0.07 0.06 0.10 0.12 0.13
1.45 1.89 3.29 2.08 0.55 0.57 1.01 1.13 0.79 0.25 0.19 0.25 0.13 0.09 0.12 0.09 0.11 0.15 0.10 0.03 0.02 0.06 0.30 0.92 0.95 1.01 1.04 0.85 0.96 0.94 0.67 0.79 1.77 2.98 1.08 0.65 0.34 0.21 0.20 0.23 0.14 0.14 0.23 0.34 0.33
0.86 0.68 0.84 0.89 0.43 0.24 0.68 0.85 0.84 0.67 0.44 0.27 0.17 0.15 0.23 0.27 0.17 0.11 0.11 0.06 0.02 0.03 0.31 1.14 1.67 1.44 0.92 0.46 0.97 0.75 0.51 0.55 1.40 1.48 1.86 1.05 0.48 0.51 0.52 0.47 0.50 0.47 0.47 0.42 0.43
0.59 0.40 0.19 0.08 0.06 0.06 0.39 0.86 0.91 0.78 0.61 0.33 0.17 0.10 0.10 0.19 0.23 0.25 0.19 0.13 0.13 0.06 0.23 0.81 1.66 1.35 0.88 0.21 0.34 0.49 0.42 0.37 0.36 0.58 0.86 0.69 0.81 0.69 0.53 0.46 0.62 0.54 0.62 0.56 0.54
0.66 0.40 0.24 0.22 0.11 0.10 0.13 0.44 0.69 0.73 0.57 0.33 0.27 0.26 0.09 0.07 0.14 0.12 0.09 0.08 0.09 0.10 0.27 0.84 1.05 1.61 1.47 0.40 0.39 0.80 0.47 0.24 0.25 0.34 0.48 0.53 0.51 0.33 0.32 0.59 0.71 0.74 0.75 0.57 0.58